{"data":{"norad_id":68256,"epoch":"2026-09-19T22:36:53.735040Z","epoch_age_seconds":99558,"freshness":"FRESH","line1":"1 68256U 26054AA  26262.94228860  .00011990  00000+0  36547-3 0  9998","line2":"2 68256  53.1563 112.4235 0001243  91.2434 268.8710 15.34396339 28764","mean_motion":15.34396339,"eccentricity":0.0001243,"inclination_deg":53.1563,"raan_deg":112.4235,"arg_perigee_deg":91.2434,"mean_anomaly_deg":268.871,"bstar":0.00036547,"rev_number":2876,"period_min":93.847981997825,"perigee_km":461.86380369786,"apogee_km":463.56443928666,"semimajor_km":6840.8511214923,"source":"CELESTRAK","updated_at":"2026-09-20T09:00:43.844379Z"}}